{"data":{"norad_id":59421,"intl_designator":"2024-065A","name":"STARLINK-11087 [DTC]","alt_names":[],"object_type":"PAYLOAD","status":"ACTIVE","operator":null,"country":"US","launch_date":"2024-04-07","launch_site_code":"AFWTR","launch_vehicle":null,"mission":null,"orbit_class":"UNKNOWN","rcs_meters":null,"size_class":null,"mass_kg":null,"dimensions":null,"purposes":["comms"],"wikipedia_slug":null,"has_3d_model":false,"image_url":null,"decayed_at":null,"tle_current":{"epoch":"2026-09-21T13:14:39.334560Z","epoch_age_seconds":74748,"freshness":"FRESH","line1":"1 59421U 24065A   26264.55184415  .00001047  00000+0  13507-4 0  9992","line2":"2 59421  53.1584 208.4892 0001093 102.5907 257.5234 15.69700686142271","mean_motion":15.69700686,"eccentricity":0.0001093,"inclination_deg":53.1584,"raan_deg":208.4892,"arg_perigee_deg":102.5907,"mean_anomaly_deg":257.5234,"bstar":1.3507e-5,"rev_number":14227,"period_min":91.737234546892,"perigee_km":359.01695223324,"apogee_km":360.48985507548,"semimajor_km":6737.8904036544,"source":"CELESTRAK","updated_at":"2026-09-22T09:00:48.919442Z"}}}